Grayling, MI

11:07 PM EDT on July 21, 2017 (GMT -0400)
Grayling

Weather History for KGOV - May, 2014

Change the Weather History Date:

Monday, May 12, 2014

  Actual Average (KHTL) Record (KHTL)
Temperature  
Mean Temperature 56 °F -  
Max Temperature 61 °F 63 °F 87 °F (1991)
Min Temperature 52 °F 41 °F 20 °F (1934)
Degree Days  
Heating Degree Days 8    
Growing Degree Days 6 (Base 50)    
Moisture  
Dew Point 49 °F    
Average Humidity 80    
Maximum Humidity 100    
Minimum Humidity 43    
Precipitation  
Precipitation 0.00 in - - ()
Sea Level Pressure  
Sea Level Pressure 29.96 in    
Wind  
Wind Speed 3 mph (East)    
Max Wind Speed 14 mph    
Max Gust Speed 18 mph    
Visibility 7 miles    
Events Fog , Rain    
Averages and records for this station are not official NWS values.
T = Trace of Precipitation, MM = Missing Value Source: NWS Daily Summary

Daily Weather History Graph

Daily Weather History Graph

Search for Another Location

Airport or City:

Trip Planner

Search our weather history database for the weather conditions in past years. The results will help you decide how hot, cold, wet, or windy it might be!

Date:

Astronomy

May. 12, 2014 Rise Set
Actual Time 6:14 AM EDT 8:56 PM EDT
Civil Twilight 5:40 AM EDT 9:30 PM EDT
Nautical Twilight 4:58 AM EDT 10:13 PM EDT
Astronomical Twilight 4:09 AM EDT 11:02 PM EDT
Moon 6:48 PM EDT (5/12) 4:59 AM EDT (5/12)
Length of Visible Light 15h 49m
Length of Day
14h 42m
Waxing Gibbous, 95% of the Moon is Illuminated
May 12
Waxing Gibbous
May 14
Full
May 21
Last Quarter
May 28
New
Jun 5
First Quarter

Hourly Weather History & Observations

Time (EDT) Temp. Dew Point Humidity Pressure Visibility Wind Dir Wind Speed Gust Speed Precip Events Conditions
12:15 AM 58.1 °F 37.4 °F 46% 29.98 in 10.0 mi Calm Calm - N/A   Scattered Clouds
12:36 AM 58.5 °F 36.1 °F 43% 29.99 in 10.0 mi Calm Calm - N/A   Scattered Clouds
12:55 AM 56.1 °F 38.3 °F 51% 29.99 in 10.0 mi Calm Calm - N/A   Mostly Cloudy
1:16 AM 55.9 °F 41.0 °F 57% 29.99 in 10.0 mi Calm Calm - N/A   Mostly Cloudy
1:36 AM 55.6 °F 38.5 °F 53% 29.99 in 10.0 mi Calm Calm - N/A   Overcast
1:55 AM 56.1 °F 39.9 °F 55% 29.98 in 10.0 mi Calm Calm - N/A   Overcast
2:16 AM 55.6 °F 38.1 °F 52% 29.98 in 10.0 mi ENE 3.5 mph - N/A   Overcast
2:35 AM 56.3 °F 39.6 °F 53% 29.97 in 10.0 mi Calm Calm - N/A   Overcast
2:55 AM 55.4 °F 39.0 °F 54% 29.96 in 10.0 mi ESE 3.5 mph - N/A   Overcast
3:16 AM 55.4 °F 38.8 °F 54% 29.96 in 10.0 mi ENE 3.5 mph - N/A   Overcast
3:35 AM 55.4 °F 42.1 °F 61% 29.96 in 10.0 mi Calm Calm - N/A   Overcast
3:56 AM 55.2 °F 41.9 °F 61% 29.96 in 10.0 mi Calm Calm - N/A   Overcast
4:16 AM 55.4 °F 40.1 °F 56% 29.96 in 10.0 mi ENE 3.5 mph - N/A   Overcast
4:35 AM 55.4 °F 39.9 °F 56% 29.96 in 10.0 mi Calm Calm - N/A   Overcast
4:56 AM 55.4 °F 40.5 °F 57% 29.96 in 10.0 mi ENE 3.5 mph - N/A   Overcast
5:15 AM 53.2 °F 39.4 °F 59% 29.97 in 10.0 mi Calm Calm - N/A   Mostly Cloudy
5:35 AM 52.7 °F 40.6 °F 64% 29.96 in 10.0 mi ENE 3.5 mph - N/A   Scattered Clouds
5:56 AM 52.7 °F 40.5 °F 63% 29.96 in 10.0 mi ESE 3.5 mph - N/A   Clear
6:15 AM 52.7 °F 41.5 °F 66% 29.97 in 10.0 mi Calm Calm - N/A   Clear
6:35 AM 52.7 °F 43.0 °F 70% 29.98 in 10.0 mi Calm Calm - N/A   Clear
6:56 AM 52.7 °F 41.7 °F 66% 29.99 in 10.0 mi ENE 3.5 mph - N/A   Scattered Clouds
7:15 AM 52.7 °F 41.2 °F 65% 30.00 in 10.0 mi East 3.5 mph - N/A   Scattered Clouds
7:36 AM 52.7 °F 41.0 °F 64% 29.99 in 10.0 mi ENE 3.5 mph - N/A   Clear
7:55 AM 52.7 °F 41.5 °F 66% 29.99 in 10.0 mi East 3.5 mph - N/A   Clear
8:15 AM 52.7 °F 41.7 °F 66% 30.00 in 10.0 mi ESE 3.5 mph - N/A   Clear
8:36 AM 52.7 °F 42.1 °F 67% 30.01 in 10.0 mi East 5.8 mph - N/A   Mostly Cloudy
8:55 AM 52.7 °F 43.2 °F 70% 30.01 in 10.0 mi Calm Calm - N/A Rain Light Rain
9:15 AM 52.7 °F 44.8 °F 74% 30.01 in 10.0 mi NE 4.6 mph - N/A Rain Light Rain
9:36 AM 52.7 °F 44.6 °F 74% 30.03 in 10.0 mi Calm Calm - N/A Rain Light Rain
10:15 AM 52.7 °F 45.7 °F 77% 30.04 in 10.0 mi ENE 4.6 mph - N/A Rain Rain
10:36 AM 52.7 °F 49.1 °F 88% 29.97 in 10.0 mi East 13.8 mph - N/A Rain Light Rain
10:55 AM 52.7 °F 48.7 °F 86% 29.97 in 10.0 mi East 11.5 mph - N/A   Mostly Cloudy
11:15 AM 53.6 °F 48.9 °F 84% 29.98 in 10.0 mi ESE 9.2 mph - N/A   Mostly Cloudy
11:36 AM 55.4 °F 48.7 °F 78% 29.96 in 10.0 mi East 10.4 mph 18.4 mph N/A   Scattered Clouds
11:55 AM 57.6 °F 50.4 °F 77% 29.96 in 10.0 mi ESE 8.1 mph - N/A   Clear
12:15 PM 57.7 °F 50.4 °F 76% 29.96 in 10.0 mi East 5.8 mph - N/A   Scattered Clouds
12:36 PM 58.8 °F 50.2 °F 73% 29.96 in 10.0 mi East 4.6 mph - N/A   Scattered Clouds
12:55 PM 59.4 °F 51.6 °F 76% 29.97 in 10.0 mi ESE 5.8 mph - N/A Rain Light Rain
1:16 PM 60.3 °F 55.0 °F 83% 29.97 in 10.0 mi ESE 9.2 mph - N/A Rain Light Rain
1:36 PM 61.5 °F 55.0 °F 79% 29.98 in 10.0 mi ESE 8.1 mph - N/A   Mostly Cloudy
1:55 PM 59.2 °F 57.2 °F 93% 29.99 in 3.0 mi ESE 4.6 mph - N/A Rain Heavy Rain
2:16 PM 59.0 °F 58.5 °F 98% 29.99 in 4.0 mi East 6.9 mph - N/A Rain Rain
2:36 PM 59.0 °F 59.0 °F 100% 29.97 in 2.5 mi ENE 8.1 mph - N/A Rain Heavy Rain
2:55 PM 56.3 °F 56.3 °F 100% 29.98 in 3.0 mi East 8.1 mph - N/A Rain Heavy Rain
3:36 PM 55.4 °F 55.4 °F 100% 29.97 in 5.0 mi East 6.9 mph - N/A Rain Light Rain
3:55 PM 55.4 °F 55.4 °F 100% 29.98 in 5.0 mi NE 5.8 mph - N/A Rain Light Rain
4:16 PM 55.4 °F 55.4 °F 100% 29.99 in 5.0 mi East 5.8 mph - N/A Rain Rain
4:35 PM 55.4 °F 55.4 °F 100% 29.97 in 5.0 mi East 6.9 mph - N/A   Overcast
4:56 PM 55.4 °F 55.4 °F 100% 29.96 in 7.0 mi East 9.2 mph - N/A   Overcast
5:15 PM 55.4 °F 55.4 °F 100% 29.92 in 7.0 mi East 9.2 mph - N/A Rain Light Rain
5:35 PM 55.4 °F 55.4 °F 100% 29.87 in 5.0 mi East 11.5 mph - N/A Rain Light Rain
5:56 PM 55.0 °F 55.0 °F 100% 29.86 in 5.0 mi ESE 9.2 mph - N/A   Overcast
6:15 PM 55.4 °F 55.4 °F 100% 29.87 in 5.0 mi East 6.9 mph - N/A   Overcast
6:35 PM 55.4 °F 55.4 °F 100% 29.89 in 7.0 mi East 4.6 mph - N/A   Overcast
7:15 PM 55.8 °F 55.8 °F 100% 29.94 in 7.0 mi Calm Calm - N/A   Overcast
7:36 PM 55.4 °F 55.4 °F 100% 29.95 in 5.0 mi North 4.6 mph - N/A   Overcast
7:56 PM 55.6 °F 55.6 °F 100% 29.95 in 5.0 mi Calm Calm - N/A   Overcast
8:15 PM 55.8 °F 55.8 °F 100% 29.95 in 4.0 mi ENE 4.6 mph - N/A   Overcast
8:36 PM 55.4 °F 55.4 °F 100% 29.94 in 4.0 mi East 3.5 mph - N/A   Overcast
8:55 PM 55.4 °F 55.4 °F 100% 29.94 in 4.0 mi East 3.5 mph - N/A   Overcast
9:15 PM 55.4 °F 55.4 °F 100% 29.94 in 3.0 mi East 3.5 mph - N/A   Overcast
9:36 PM 55.4 °F 55.4 °F 100% 29.95 in 2.5 mi East 3.5 mph - N/A   Overcast
9:55 PM 55.4 °F 55.4 °F 100% 29.94 in 1.5 mi East 4.6 mph - N/A   Overcast
10:15 PM 55.4 °F 55.4 °F 100% 29.95 in 0.8 mi ENE 3.5 mph - N/A   Overcast
10:36 PM 55.4 °F 55.4 °F 100% 29.93 in 0.5 mi ENE 3.5 mph - N/A Fog Fog
10:55 PM 55.4 °F 55.4 °F 100% 29.92 in 0.2 mi East 3.5 mph - N/A Fog Fog
11:16 PM 55.4 °F 55.4 °F 100% 29.92 in 0.8 mi East 4.6 mph - N/A Rain Light Rain
11:36 PM 55.4 °F 55.4 °F 100% 29.92 in 0.8 mi East 5.8 mph - N/A   Overcast
11:55 PM 55.4 °F 55.4 °F 100% 29.93 in 0.5 mi East 3.5 mph - N/A   Light Drizzle